Regional Weather Roundup
Issued by NWS

Home | Current Version | Previous Version | Text Only | Print | Product List | Glossary On
Versions: 1 2 3 4 5 6 7 8 9 10 11 12 13 14 15 16 17 18 19 20 21 22 23 24 25 26 27 28 29 30 31 32 33 34 35 36 37 38 39 40 41 42 43 44 45 46 47 48 49 50
000
ASUS44 KFWD 061515
RWRTX
NORTH TEXAS HOURLY WEATHER ROUNDUP
NATIONAL WEATHER SERVICE FORT WORTH TX
1000 AM CDT FRI MAY 06 2016

NOTE: "FAIR" INDICATES FEW OR NO CLOUDS BELOW 12,000 FEET WITH NO
SIGNIFICANT WEATHER AND/OR OBSTRUCTIONS TO VISIBILITY.

TXZ118-119-061600-
DALLAS/FORT WORTH METROPLEX

CITY           SKY/WX    TMP DP  RH WIND       PRES   REMARKS
DFW AIRPORT    PTSUNNY   75  49  39 SE6       30.11R
DALLAS LOVE    PTSUNNY   75  48  38 SE7       30.11R
FTW MEACHAM    SUNNY     73  52  47 SE6       30.11S
DAL-EXECUTIVE  SUNNY     73  49  42 SE6       30.11R
FTW-ALLIANCE   PTSUNNY   73  51  46 SE6       30.11S
FTW-NAS-JRB    MOSUNNY   71  53  52 SE3       30.11F
FTW-SPINKS     SUNNY     72  54  53 SE5       30.13S
ARLINGTON      SUNNY     75  52  44 E5        30.12R
GRAND PRAIRIE  SUNNY     72  48  43 E5        30.13R
ADDISON        SUNNY     73  46  38 SE6       30.12R
MESQUITE       SUNNY     72  52  49 E3        30.12R
LANCASTER      SUNNY     71  48  44 CALM      30.12R
$$

TXZ091>094-102>105-117-120-121-131>134-061600-
NORTH CENTRAL TEXAS

CITY           SKY/WX    TMP DP  RH WIND       PRES   REMARKS
SHRMAN/DENISON SUNNY     69  46  43 E5        30.13S
GAINESVILLE    SUNNY     70  53  56 SE3       30.14S
BOWIE          SUNNY     70  53  56 E6        30.11F
BRIDGEPORT     SUNNY     71  54  54 SE8       30.13R
DECATUR        SUNNY     71  51  49 E7        30.12S
DENTON         SUNNY     70  55  59 SE6       30.12R
MCKINNEY       SUNNY     71  52  50 E6        30.11S
GREENVILLE     SUNNY     70  52  52 E6        30.13R
ROCKWALL       SUNNY     72  53  50 E8        30.11R
TERRELL        SUNNY     72  50  45 NE8       30.12R
WAXAHACHIE     SUNNY     72  52  50 E5        30.13S
CLEBURNE       SUNNY     72  55  56 S3        30.13S
GRANBURY       SUNNY     72  57  58 E7        30.12S
$$

TXZ083>090-098>101-113>116-127>130-139>142-154-155-061600-
WESTERN NORTH TEXAS

CITY           SKY/WX    TMP DP  RH WIND       PRES   REMARKS
WICHITA FALLS  CLOUDY    70  52  52 S10       30.10S
WF-KICKAPOO    CLOUDY    71  50  47 SE12      30.12R
VERNON         SUNNY     73  44  35 SE13      30.10S
ABILENE        SUNNY     72  54  53 S12       30.11
ABILENE-DYESS  SUNNY     74  56  54 SE15      30.09R
BRECKENRIDGE   SUNNY     74  47  38 S9        30.11R
GRAHAM         SUNNY     72  51  47 SE7       30.10R
MINERAL WELLS  SUNNY     70  54  56 SE9       30.09F
STEPHENVILLE   SUNNY     69  53  55 S6        30.14S
COMANCHE       SUNNY     71  53  53 S7        30.12S
BROWNWOOD      SUNNY     72  50  46 SE12      30.12S
COLEMAN        SUNNY     74  51  45 S12       30.12R
$$

TXZ143>147-156>162-174-175-061600-
CENTRAL TEXAS

CITY           SKY/WX    TMP DP  RH WIND       PRES   REMARKS
WACO           SUNNY     72  50  45 VRB3      30.11S
WACO-TSTC      SUNNY     72  54  53 CALM      30.12S
WACO-MCGREGOR  SUNNY     73  55  53 SE5       30.11S
HILLSBORO      SUNNY     72  52  49 SE5       30.12S
CORSICANA      SUNNY     73  53  49 SE5       30.13R
MEXIA          SUNNY     71  52  50 CALM      30.11R
HEARNE         SUNNY     70  54  57 CALM      30.12R
TEMPLE         SUNNY     72  55  55 S5        30.12R
KILLEEN        SUNNY     71  54  53 SE7       30.11R
KILLEEN-SKYLRK SUNNY     72  53  51 S8        30.12R
FORT HOOD      SUNNY     73  51  45 SE6       30.10R
GATESVILLE     SUNNY     73  52  46 MISG      30.13S
HAMILTON       SUNNY     72  53  50 S10       30.13S
LAMPASAS       SUNNY     71  58  63 SE5       30.12R
$$

TXZ095>097-106>112-122>126-135>138-148>153-164>167-061600-
EAST TEXAS

CITY           SKY/WX    TMP DP  RH WIND       PRES   REMARKS
PARIS          MOSUNNY   66  46  48 E7        30.14R
SULPHUR SPRNGS SUNNY     70  55  60 E6        30.15R
MOUNT PLEASANT SUNNY     68  50  52 CALM      30.14R
GILMER         SUNNY     68  50  52 SE3       30.12R
MINEOLA        SUNNY     68  54  60 NE3       30.13R
TYLER          MOSUNNY   72  53  51 NE6       30.11S
LONGVIEW       SUNNY     68  54  60 E5        30.11R
MARSHALL       SUNNY     66  53  61 CALM      30.14R
ATHENS         SUNNY     70  50  49 E3        30.10R
PALESTINE      SUNNY     73  50  44 E7        30.12R
JACKSONVILLE   SUNNY     70  52  52 NE3       30.13R
HENDERSON      SUNNY     70  54  56 CALM      30.13R
CENTER         FAIR      70  58  63 NE5       30.10R
NACOGDOCHES    SUNNY     72  54  53 E5        30.10R
LUFKIN         SUNNY     71  56  58 CALM      30.10R
$$

SUPPLEMENTAL OBSERVATIONS (CENTRAL)

CITY           SKY/WX    TMP DP  RH WIND       PRES   REMARKS
LAKE TEXOMA      N/A     70  50  49 E5          N/A
PAT MAYSE LAKE   N/A     64  48  55 NE5         N/A
GREENVILLE       N/A     70  52  52 SE5         N/A
CEDAR HILL       N/A     75  50  41 SE3         N/A
ATHENS           N/A     73  52  46 E6          N/A
LAKE LIMESTONE   N/A     75  54  46 N3          N/A
MCGREGOR         N/A     75  54  46 S3          N/A
$$

SUPPLEMENTAL OBSERVATIONS (WEST)

CITY           SKY/WX    TMP DP  RH WIND       PRES   REMARKS
MILLERS CREEK    N/A     73  50  43 S15         N/A
COMANCHE         N/A     73  52  46 S10         N/A
HAMBY            N/A     73  52  46 S15         N/A
IVIE RESERVOIR   N/A     75  55  50 CALM        N/A
COLORADO BEND    N/A     73  48  40 S9          N/A
$$

SUPPLEMENTAL OBSERVATIONS (EAST)

CITY           SKY/WX    TMP DP  RH WIND       PRES   REMARKS
CLARKSVILLE      N/A     68  48  49 E5          N/A
TEXARKANA        N/A     70  52  52 E3          N/A
LINDEN           N/A     70  50  49 E6          N/A
CADDO LAKE       N/A     72  50  46 E5          N/A
GILMER           N/A     72  52  49 SE6         N/A
HENDERSON        N/A     72  54  53 NE3         N/A
LUFKIN           N/A     73  59  60 MISG        N/A
N SABINE NF      N/A     72  57  60 MISG        N/A
S SABINE NF      N/A     75  50  41 E2          N/A
$$

SUPPLEMENTAL OBSERVATIONS ARE A COLLECTION OF AUTOMATED INSTRUMENTS
THAT ARE MAINTAINED BY A VARIETY OF FEDERAL AND STATE AGENCIES.
CERTAIN ELEMENTS...SUCH AS HUMIDITY VALUES AND SUSTAINED WIND
SPEEDS...MAY BE APPROXIMATED.





USA.gov is the U.S. government's official web portal to all federal, state and local government web resources and services.